User: anonymous   Login
Location: Caltech
(34.1382°N, 118.1253°W)
Time: 09:15:35
(UTC-08:00)
Language:

Cosmos 2322 - Orbit

View from above orbital plane
View from above orbital plane
View from above satellite
View from above satellite

Ground track
Ground track

The orbit data is extracted from the following two-line orbital elements,

1 23704U 95058A   14354.94945572  .00000038  00000-0  45791-4 0  1707
2 23704 070.9834 149.4065 0008444 017.2690 111.7216 14.13276986987373
Epoch (UTC): 20 December 2014 22:47:12
Eccentricity: 0.0008444
inclination: 70.9834°
perigee height: 842 km
apogee height: 854 km
right ascension of ascending node: 149.4065°
argument of perigee: 17.2690°
revolutions per day: 14.13276986
mean anomaly at epoch: 111.7216°
orbit number at epoch: 98737

The dashed part of the orbit path shows where the satellite is in the earth's shadow,  

DLR